Cloud_Cover
92 92 92 92 92 92 92 68 76 92 88 92 92 92 92 92 92 92 92 92 92 92 92 92 92 92 92 88 88 88 88 88 80 80 76 76 76 76 76 76 76 68 64 56 48 44 36 12 8 0 0 0 0 0 0 0 0 0 0 0 0 0 0 8 12 20 32 8 24 64 88 48 32 32 32 68 80 76 56 76 80 80 92 76 76 80
92 92 92 88 88 80 68 64 76 88 92 92 92 92 92 92 92 92 92 92 92 92 92 92 92 92 88 88 92 92 88 92 88 80 76 80 88 80 80 80 76 68 64 44 32 20 12 8 0 0 0 0 0 0 0 0 0 0 0 0 0 0 0 8 8 12 24 8 20 44 68 80 76 56 36 36 56 64 36 48 76 92 92 32 48 92
92 92 76 68 68 64 64 80 88 92 92 92 92 92 92 92 92 92 92 92 92 92 92 92 88 88 92 92 92 92 92 88 88 88 88 88 88 88 88 68 56 48 48 24 12 8 8 0 0 0 0 0 0 0 0 0 0 8 8 8 8 8 0 0 0 8 20 8 20 36 64 80 80 76 68 48 36 44 48 68 80 92 92 56 68 92
88 80 68 68 76 76 80 92 92 92 92 92 92 92 92 92 92 92 92 92 92 92 88 88 92 92 92 92 92 92 92 92 88 88 92 88 80 80 68 48 36 32 24 8 0 0 0 0 0 0 0 0 0 0 0 0 8 8 8 8 8 8 0 0 0 0 0 0 8 24 44 64 76 76 76 76 56 44 64 80 92 88 80 76 80 92
68 76 80 80 88 92 92 92 92 92 92 92 92 92 92 92 92 92 92 92 92 92 92 92 92 92 92 92 92 92 92 88 88 80 88 68 64 56 56 32 20 20 12 8 0 0 0 0 0 0 0 0 0 0 0 0 0 0 0 8 8 8 8 0 0 0 0 8 24 36 48 64 68 76 76 88 64 44 68 88 92 88 68 76 88 92
76 80 92 92 92 92 92 92 92 92 92 92 92 92 92 92 92 92 92 92 92 92 92 92 92 92 92 88 88 92 92 80 80 76 80 56 44 36 32 12 8 8 8 0 0 0 0 0 0 0 0 0 0 0 0 0 0 0 0 0 8 8 0 0 8 12 20 32 44 56 56 64 68 68 76 88 48 36 88 88 92 88 80 88 88 92
88 92 92 92 92 92 92 92 92 92 92 92 92 92 92 92 92 92 92 92 92 92 92 92 92 92 88 88 88 88 88 68 56 56 56 36 24 20 20 8 0 0 0 0 0 0 0 0 0 0 0 0 0 0 0 0 0 0 0 0 0 0 0 0 8 20 44 48 56 64 64 64 64 68 76 64 48 48 92 92 92 80 44 48 68 92
92 92 92 92 92 92 92 92 92 92 92 92 92 92 92 92 92 92 92 92 92 92 92 88 88 88 88 80 80 80 80 56 44 36 36 20 12 12 8 8 0 0 0 0 0 0 0 0 0 0 0 0 0 0 0 0 0 0 0 0 0 0 0 0 0 8 20 32 36 44 56 64 64 68 80 64 68 80 92 92 92 80 48 48 48 64
92 92 92 92 92 92 92 92 92 92 92 92 92 92 92 92 88 76 76 80 88 88 88 88 88 88 76 68 64 64 56 36 32 24 24 20 12 8 0 0 0 0 0 0 0 0 0 0 0 0 0 0 0 0 0 0 0 0 0 0 0 0 0 0 0 0 0 8 20 24 44 56 56 64 68 68 80 92 92 92 88 88 68 56 56 68
92 92 92 92 92 92 92 92 92 92 92 92 92 92 92 88 80 76 80 80 80 80 88 88 88 80 56 48 44 44 36 32 24 24 24 20 12 8 0 0 0 0 0 0 0 0 0 0 0 0 0 0 0 0 0 0 0 0 0 0 0 0 0 0 0 0 0 0 8 12 32 44 36 24 48 76 88 88 88 88 68 36 36 36 64 80
92 92 92 92 92 92 92 92 92 92 92 92 92 88 88 80 80 88 92 92 88 80 76 68 64 56 44 44 36 32 32 24 20 20 20 20 12 8 0 0 0 0 0 0 0 0 0 0 0 0 0 0 0 0 0 0 0 0 0 0 0 0 0 0 0 0 0 0 0 8 12 24 20 20 64 64 68 68 88 88 56 24 24 64 56 48
92 92 92 92 92 92 92 92 92 92 92 92 92 88 88 80 88 88 88 88 88 80 56 44 44 44 44 44 36 32 24 20 20 20 20 12 8 8 0 0 0 0 0 0 0 0 0 0 0 0 0 0 0 0 0 0 0 0 0 0 0 0 0 0 0 0 8 0 8 20 20 12 36 68 80 56 64 80 92 92 80 64 24 36 32 44
92 92 92 92 92 92 92 92 92 92 92 88 88 88 88 88 88 80 80 80 68 56 44 44 44 44 36 32 32 24 20 12 12 12 12 0 0 0 0 0 0 0 0 0 0 0 0 0 0 0 0 0 0 0 0 0 0 0 0 0 0 0 0 0 0 0 20 8 12 20 8 8 48 88 88 80 64 56 92 92 92 88 68 32 24 44
88 88 92 92 92 92 92 92 92 88 88 88 88 88 88 88 80 76 68 64 48 48 48 56 48 44 36 36 36 32 24 12 0 0 0 0 0 0 0 0 0 0 0 0 0 0 0 0 0 0 0 0 0 0 0 0 0 0 0 0 0 0 0 0 8 12 20 8 8 12 0 8 48 88 68 88 76 68 92 68 76 92 88 44 56 68
92 92 92 92 92 92 92 92 92 88 88 88 80 80 80 80 68 56 56 56 48 44 44 44 36 36 36 36 44 44 24 8 0 0 0 0 0 0 0 0 0 0 0 0 0 0 0 0 0 0 0 0 0 0 0 0 0 0 0 0 0 0 0 0 8 8 0 0 0 8 12 64 64 56 68 88 88 88 80 80 88 80 56 44 44 48
92 92 92 92 92 92 92 92 92 92 88 80 80 76 68 64 48 44 44 48 44 36 32 32 32 24 12 12 24 24 0 0 0 0 0 0 0 0 0 0 0 0 0 0 0 0 0 0 0 0 0 0 0 0 0 0 0 0 0 0 0 0 0 0 0 0 0 0 0 24 80 88 88 68 36 76 92 92 88 92 80 68 76 64 56 56
92 92 92 92 92 92 92 92 92 92 92 88 80 76 48 44 36 32 36 36 32 24 24 24 20 20 8 0 0 0 8 0 0 0 0 0 0 0 0 0 0 0 0 0 0 0 0 0 0 0 0 0 0 0 0 0 0 0 0 0 0 0 0 0 0 0 0 0 36 80 88 88 88 88 88 88 92 92 92 92 88 88 88 80 76 76
92 92 92 92 92 92 92 92 92 92 92 88 76 56 44 36 32 24 24 24 24 24 20 12 8 8 20 8 8 0 0 8 8 8 0 0 0 0 0 0 0 0 0 0 0 0 0 0 0 0 0 0 0 0 0 0 0 0 0 0 0 0 0 0 0 0 0 64 88 88 88 88 88 88 92 92 80 76 92 92 92 92 92 92 92 92
92 92 92 92 92 92 92 92 92 92 92 68 56 44 36 32 24 24 36 24 32 32 12 12 12 12 20 24 12 8 0 12 12 8 0 0 0 0 0 0 0 0 0 0 0 0 0 0 0 0 0 0 0 0 0 0 0 0 0 0 0 0 0 0 0 20 88 88 88 88 88 88 88 88 88 88 76 68 92 92 92 92 92 92 92 92
92 92 92 92 92 92 92 92 92 92 88 64 48 44 36 32 36 44 32 20 20 12 8 12 20 24 36 32 24 20 12 12 8 0 0 0 0 0 0 0 0 0 0 0 0 0 0 0 0 0 0 0 0 0 0 0 0 0 0 0 0 0 0 0 12 32 32 76 88 88 80 88 88 88 80 76 80 92 92 92 92 92 92 92 92 92
92 92 92 92 92 92 92 92 88 88 88 76 64 48 56 48 32 12 12 12 12 12 20 24 32 36 32 32 32 24 20 12 12 12 8 8 0 0 0 0 0 0 0 0 0 0 0 0 0 0 0 0 0 0 0 0 0 0 0 0 0 0 0 0 0 24 80 36 12 24 88 88 88 88 76 88 92 92 92 92 92 92 92 92 88 80
92 92 92 92 92 92 88 88 76 68 76 56 48 44 36 32 20 20 24 20 20 20 36 36 36 32 12 24 24 24 20 20 20 12 8 12 8 0 0 0 0 0 0 0 0 0 0 0 0 0 0 0 0 0 0 0 0 0 0 0 0 0 0 0 0 20 76 80 88 88 88 88 88 88 88 88 92 92 92 92 92 88 76 88 80 68
92 92 92 92 92 88 76 68 64 64 76 36 32 32 24 24 32 32 32 24 36 44 44 36 32 24 8 12 12 12 12 20 12 12 12 8 8 0 0 0 0 0 0 0 0 0 0 0 0 0 0 0 0 0 0 0 0 0 0 0 0 0 0 0 0 24 76 80 88 88 88 88 92 92 92 80 88 88 88 92 92 92 92 92 80 68
92 92 92 88 88 80 68 68 64 64 64 32 24 20 20 24 32 36 44 44 48 48 36 24 12 12 8 8 8 12 8 32 24 8 8 0 0 0 0 0 0 0 0 0 0 0 0 0 0 0 0 0 0 0 0 0 0 0 0 0 0 0 0 0 8 24 44 68 80 88 92 92 92 92 92 92 80 68 64 80 80 80 88 88 76 56
92 92 88 80 76 68 76 68 56 56 64 44 32 24 24 32 44 48 64 56 44 24 24 20 20 12 12 12 12 8 0 32 20 0 0 0 0 0 0 0 0 0 0 0 0 0 0 0 0 0 0 0 0 0 0 0 0 0 0 0 0 0 0 0 8 20 36 64 80 88 92 92 92 92 92 92 88 76 76 76 76 68 64 76 68 64
92 92 92 80 80 76 64 48 48 48 56 56 48 44 44 44 44 44 36 32 32 36 32 32 24 20 12 12 8 8 0 24 12 0 0 0 0 0 0 0 0 0 0 0 0 0 0 0 0 0 0 0 0 0 0 0 0 0 0 0 0 0 0 0 0 12 24 44 68 88 88 88 92 92 88 92 88 88 92 68 68 76 68 80 76 68
92 92 88 80 76 68 56 48 44 44 44 48 48 44 48 44 44 44 36 36 36 36 36 36 36 32 20 8 8 0 0 20 12 8 0 0 0 8 0 0 0 0 0 0 0 0 0 0 0 0 0 0 0 0 0 0 0 0 0 0 0 0 0 0 8 12 24 44 68 76 56 64 76 80 64 76 88 88 88 64 68 76 80 68 56 48
92 88 88 80 76 56 48 44 44 36 36 36 36 36 32 32 36 48 36 36 36 36 36 32 32 24 12 8 0 0 0 0 20 24 0 8 12 12 0 0 0 0 0 20 12 0 0 0 0 0 0 0 0 0 0 0 0 0 0 0 0 0 0 0 0 8 12 24 32 32 20 24 36 44 36 48 64 76 80 68 76 76 64 64 48 32
88 88 88 80 64 44 36 36 32 32 24 24 24 32 32 44 56 64 48 36 44 44 32 24 24 20 12 8 0 0 0 0 20 24 0 12 8 0 0 0 0 8 32 64 36 0 0 0 0 0 0 0 0 0 0 0 0 0 0 0 0 0 0 0 0 0 0 0 0 8 24 24 24 32 36 36 36 48 88 88 88 80 64 64 44 20
80 76 64 48 32 20 20 24 24 32 36 44 44 48 56 68 68 68 56 44 36 32 32 24 20 20 44 32 20 8 0 0 12 20 20 0 0 0 0 0 0 20 64 76 56 24 0 0 0 0 0 0 0 0 0 0 0 0 0 0 0 0 0 0 0 0 0 0 0 20 48 44 44 44 44 44 44 48 76 88 88 88 80 56 48 48
64 48 36 24 24 24 24 32 36 44 68 68 68 68 68 64 56 48 44 36 24 20 24 20 12 24 64 64 44 20 0 0 8 12 20 0 0 0 0 24 24 24 56 76 80 64 32 8 0 0 0 0 0 0 0 0 0 0 0 0 0 0 0 0 0 0 0 12 24 36 48 56 56 48 48 44 44 44 44 76 88 92 92 80 80 80
44 36 36 32 44 64 64 64 64 68 76 76 76 68 68 48 36 32 24 24 20 24 32 32 24 32 64 64 48 24 0 0 8 12 0 0 0 12 36 68 64 56 68 80 80 80 76 48 20 0 8 8 0 0 0 0 0 0 0 0 0 0 0 8 12 20 12 24 48 64 56 64 64 56 48 44 44 36 32 76 88 92 92 88 88 88
56 48 56 56 68 76 76 76 76 76 68 64 64 56 56 36 32 24 20 20 20 24 32 36 44 48 56 64 56 36 0 0 0 0 0 0 12 32 80 76 76 76 76 80 88 80 80 80 48 20 8 8 8 0 0 0 0 0 0 0 0 0 0 24 32 36 36 36 44 48 36 44 56 64 64 56 48 44 44 56 76 88 92 88 88 88
76 76 76 76 76 76 76 76 68 64 56 48 44 44 36 32 24 24 20 20 20 20 20 32 44 56 48 56 48 24 0 0 0 0 12 24 44 64 76 76 80 80 76 80 80 80 80 80 76 64 48 20 0 0 0 0 0 0 0 0 0 0 8 20 36 56 56 44 44 44 32 36 48 68 76 68 64 56 48 48 64 80 92 92 88 88
76 76 76 76 68 68 68 64 64 48 36 32 32 24 24 24 24 24 24 20 20 12 12 20 20 24 20 48 44 24 0 0 0 8 44 64 76 80 76 76 80 80 80 80 80 80 80 80 80 80 80 24 0 0 0 0 0 8 8 12 12 8 8 12 20 24 20 24 36 44 36 44 48 64 76 76 68 64 56 56 68 80 88 92 92 88
76 76 68 68 64 56 56 48 44 36 24 24 24 24 24 20 20 12 12 12 12 8 8 8 0 0 0 12 20 20 0 0 0 20 64 80 80 80 80 68 76 80 80 80 80 80 80 68 76 80 80 64 56 36 0 0 8 12 24 24 24 20 20 8 8 0 0 12 32 44 36 44 44 44 48 64 64 64 56 68 68 68 80 92 92 92
64 64 56 56 48 44 36 36 32 24 24 24 20 20 20 8 8 8 8 8 0 0 0 0 0 0 0 0 0 0 0 0 0 12 44 76 88 88 80 80 76 76 80 80 80 80 80 76 76 80 80 80 80 76 56 12 20 36 32 36 24 12 20 20 8 0 0 20 36 48 44 68 68 48 44 64 68 64 48 48 48 64 88 92 92 92
48 48 48 44 36 32 32 24 24 24 24 20 20 12 8 0 0 0 0 0 0 0 0 0 0 0 0 0 0 0 0 8 20 32 48 80 88 88 88 80 80 80 88 88 88 88 80 80 80 80 80 80 80 76 48 20 12 12 8 8 0 8 24 36 24 12 20 24 32 36 36 68 80 68 56 68 68 64 48 36 44 64 92 92 92 92
48 48 48 44 36 32 32 32 24 24 24 20 12 8 0 0 0 0 0 0 0 0 0 0 0 0 0 0 0 0 12 24 36 44 64 80 88 88 88 80 68 64 88 88 88 88 88 80 80 80 80 80 80 80 76 76 68 68 68 20 0 0 8 24 32 36 32 68 76 64 48 68 80 80 68 80 76 68 80 76 68 76 92 92 92 92
48 44 44 36 32 32 32 32 32 24 24 24 20 12 8 0 0 0 0 0 0 0 0 0 0 0 0 0 0 0 8 24 48 68 76 88 88 92 88 88 80 76 64 80 88 88 88 88 88 88 88 88 80 80 80 80 68 64 88 76 48 24 0 12 24 32 44 76 88 88 88 92 92 92 92 88 88 88 88 88 88 88 92 92 80 68
44 44 36 32 32 32 36 36 32 32 24 24 20 20 12 8 0 0 0 0 0 0 0 8 8 8 0 0 0 0 8 12 24 48 88 88 88 88 92 88 80 80 80 88 88 88 88 88 88 88 88 88 88 80 80 64 68 88 88 88 80 64 12 32 48 64 68 88 92 92 92 92 92 92 92 92 92 92 88 88 80 80 92 92 92 88
44 36 32 32 36 36 36 32 32 32 24 20 20 12 12 0 12 20 8 0 0 8 20 36 44 32 12 12 12 8 8 8 12 24 48 68 80 88 88 88 88 88 88 88 88 88 88 88 88 88 88 88 88 80 80 80 56 48 88 88 88 88 80 36 44 68 92 92 92 92 92 92 92 92 92 92 92 92 92 92 88 88 92 92 92 92
36 32 32 36 36 36 32 32 32 24 20 12 12 8 8 20 48 64 36 24 20 12 8 8 20 36 48 12 12 20 12 8 8 8 8 32 44 56 76 88 88 88 88 88 88 88 88 88 88 88 92 92 92 88 80 80 64 48 88 88 88 88 88 24 20 44 88 88 88 92 92 92 92 92 92 92 92 92 92 92 92 92 92 92 92 92
36 32 32 32 32 32 32 24 24 20 12 12 8 8 0 8 20 44 76 76 64 44 24 24 20 24 32 24 32 24 8 32 32 24 12 68 88 88 80 88 92 92 92 92 92 88 88 80 80 80 80 88 88 80 80 80 80 80 68 88 92 92 92 88 88 80 48 76 88 88 92 92 92 92 92 92 92 92 92 92 92 92 92 92 92 92
36 32 32 24 24 24 24 20 12 8 8 8 0 0 0 8 44 76 76 76 64 48 32 48 36 32 44 36 32 24 20 12 48 76 44 64 76 88 88 88 92 92 92 92 92 88 88 80 64 48 48 76 80 80 80 88 80 80 80 88 92 92 92 88 88 88 88 64 56 68 88 88 92 92 92 92 92 92 92 92 92 92 92 92 92 92
36 32 32 24 20 20 20 12 12 8 0 0 8 12 20 12 36 56 68 68 76 76 76 76 76 76 76 36 48 68 56 32 44 68 68 48 36 36 48 76 88 88 88 88 76 76 80 88 88 88 80 80 76 76 92 88 88 88 80 88 92 92 92 88 88 88 88 76 80 88 88 88 92 92 92 92 92 92 92 92 92 92 92 92 92 92
44 36 32 24 20 12 12 8 12 12 8 8 8 20 24 36 36 44 44 64 68 68 76 68 76 76 76 76 76 76 76 68 36 12 8 12 32 44 32 44 56 76 80 56 24 12 44 76 88 88 88 88 64 48 80 88 88 92 92 92 92 92 88 88 80 80 88 88 92 92 80 92 92 92 92 92 92 92 92 92 92 92 92 92 92 92
64 48 36 32 24 20 12 12 20 32 24 24 20 20 36 44 64 76 76 44 48 68 76 56 64 76 76 76 80 80 80 80 68 44 12 36 32 24 44 48 44 36 48 32 12 8 20 56 76 80 88 88 88 76 44 68 88 92 92 92 92 88 88 88 76 68 76 88 92 92 92 92 92 92 92 92 92 92 92 92 92 92 88 92 92 92
56 64 56 64 56 44 24 32 44 48 44 44 36 24 20 56 76 76 76 56 64 76 76 76 76 76 76 76 80 80 80 80 80 76 44 76 64 36 32 68 64 36 36 24 20 12 8 12 32 64 92 92 92 88 80 88 88 92 92 92 88 88 88 88 80 80 92 92 92 92 92 92 92 92 88 92 92 92 92 92 92 92 92 92 92 92
44 56 64 68 68 64 48 56 64 68 68 68 64 48 24 48 68 76 76 68 68 76 76 76 76 76 76 76 76 80 80 80 80 80 80 80 80 80 64 76 80 68 24 20 12 12 12 12 48 88 92 92 92 92 92 92 88 88 88 88 88 92 88 88 88 88 88 92 92 92 92 92 92 88 88 88 88 88 92 88 88 88 88 92 92 92
48 56 68 68 76 76 76 68 68 68 68 68 68 64 56 48 64 76 80 56 64 76 80 80 80 80 80 80 80 80 80 80 80 80 80 80 88 88 88 88 88 76 56 36 32 32 24 12 36 64 76 88 92 92 92 92 88 88 80 80 88 92 88 92 92 92 88 92 92 92 92 92 92 92 92 92 88 88 88 80 76 68 68 88 92 92